McCall, ID

7:45 PM MST on December 03, 2016 (GMT -0700)
McCall

Weather History for KMYL - April, 2014

Change the Weather History Date:

Tuesday, April 22, 2014

  Actual Average Record
Temperature  
Mean Temperature 36 °F 39 °F  
Max Temperature 45 °F 51 °F 77 °F (2012)
Min Temperature 27 °F 27 °F 12 °F (2011)
Degree Days  
Heating Degree Days 29 26  
Month to date heating degree days 565 647  
Since 1 July heating degree days 7571 8436  
Cooling Degree Days 0 0  
Month to date cooling degree days 0 0  
Year to date cooling degree days 0 0  
Moisture  
Dew Point 31 °F    
Average Humidity 80    
Maximum Humidity 96    
Minimum Humidity 64    
Precipitation  
Precipitation 0.67 in 0.07 in 0.72 in (1990)
Month to date precipitation 1.17 1.43  
Year to date precipitation 12.12 7.10  
Sea Level Pressure  
Sea Level Pressure 29.74 in    
Wind  
Wind Speed 3 mph (WNW)    
Max Wind Speed 15 mph    
Max Gust Speed 22 mph    
Visibility 5 miles    
Events Rain , Snow    
T = Trace of Precipitation, MM = Missing Value Source: NWS Daily Summary

Daily Weather History Graph

Daily Weather History Graph

Search for Another Location

Airport or City:

Trip Planner

Search our weather history database for the weather conditions in past years. The results will help you decide how hot, cold, wet, or windy it might be!

Date:

Astronomy

Apr. 22, 2014 Rise Set
Actual Time 6:47 AM MDT 8:38 PM MDT
Civil Twilight 6:16 AM MDT 9:10 PM MDT
Nautical Twilight 5:38 AM MDT 9:48 PM MDT
Astronomical Twilight 4:56 AM MDT 10:30 PM MDT
Moon 2:58 AM MDT (4/22) 1:27 PM MDT (4/22)
Length of Visible Light 14h 53m
Length of Day
13h 50m
Last Quarter, 45% of the Moon is Illuminated
Apr 22
Last Quarter
Apr 29
New
May 6
First Quarter
May 14
Full
May 21
Last Quarter

Hourly Weather History & Observations

Time (MDT) Temp. Windchill Dew Point Humidity Pressure Visibility Wind Dir Wind Speed Gust Speed Precip Events Conditions
12:51 AM 39.0 °F - 28.0 °F 65% 29.77 in 10.0 mi Calm Calm - N/A   Mostly Cloudy
2:51 AM 39.9 °F 37.8 °F 28.9 °F 65% 29.70 in 10.0 mi NNW 3.5 mph - N/A   Overcast
3:51 AM 39.9 °F - 28.9 °F 65% 29.67 in 10.0 mi Calm Calm - N/A   Overcast
4:51 AM 39.0 °F 36.8 °F 30.0 °F 70% 29.65 in 10.0 mi East 3.5 mph - N/A   Overcast
5:51 AM 39.0 °F - 30.0 °F 70% 29.67 in 10.0 mi Calm Calm - N/A   Overcast
6:51 AM 43.0 °F 39.5 °F 32.0 °F 65% 29.69 in 10.0 mi Variable 5.8 mph - 0.00 in Rain Light Rain
7:08 AM 41.0 °F 36.4 °F 35.1 °F 79% 29.76 in 7.0 mi WNW 6.9 mph - 0.01 in Rain Light Rain
7:38 AM 39.0 °F 34.8 °F 35.1 °F 86% 29.78 in 2.5 mi WNW 5.8 mph - 0.09 in Rain Rain
7:45 AM 39.0 °F 34.0 °F 35.1 °F 86% 29.78 in 3.0 mi NW 6.9 mph - 0.12 in Rain Rain
7:51 AM 39.0 °F 34.8 °F 35.1 °F 86% 29.75 in 3.0 mi WNW 5.8 mph - 0.13 in Rain Rain
8:25 AM 37.9 °F 32.1 °F 34.0 °F 86% 29.77 in 6.0 mi NNE 8.1 mph - 0.07 in Rain Light Rain
8:34 AM 37.0 °F 31.6 °F 34.0 °F 89% 29.77 in 8.0 mi NNE 6.9 mph - 0.08 in Rain Light Rain
8:51 AM 36.0 °F 32.1 °F 33.1 °F 89% 29.75 in 7.0 mi ENE 4.6 mph - 0.09 in Rain Rain
9:18 AM 34.0 °F - 30.9 °F 89% 29.77 in 3.0 mi Calm Calm - 0.05 in Snow Light Snow
9:26 AM 34.0 °F - 30.9 °F 89% 29.77 in 2.0 mi Calm Calm - 0.07 in Snow Light Snow
9:40 AM 33.1 °F - 30.9 °F 92% 29.77 in 1.5 mi Calm Calm - 0.09 in Snow Light Snow
9:47 AM 33.8 °F 30.8 °F 30.2 °F 87% 29.77 in 0.8 mi WSW 3.5 mph - 0.11 in Snow Light Snow
9:51 AM 32.0 °F - 30.0 °F 92% 29.77 in 0.8 mi Calm Calm - 0.12 in Snow Light Snow
9:59 AM 32.0 °F - 30.9 °F 96% 29.76 in 1.2 mi Calm Calm - 0.02 in Snow Light Snow
10:16 AM 32.0 °F 27.5 °F 30.0 °F 92% 29.76 in 2.0 mi East 4.6 mph - 0.05 in Snow Light Snow
10:26 AM 33.1 °F 28.7 °F 30.0 °F 89% 29.75 in 3.0 mi ENE 4.6 mph - 0.06 in Rain Rain
10:51 AM 34.0 °F - 32.0 °F 92% 29.76 in 6.0 mi Calm Calm - 0.09 in Snow Light Snow
11:06 AM 34.0 °F - 30.9 °F 89% 29.74 in 3.0 mi Calm Calm - 0.01 in Snow Light Snow
11:13 AM 34.0 °F - 30.9 °F 89% 29.74 in 2.5 mi Calm Calm - 0.02 in Snow Light Snow
11:21 AM 33.1 °F 30.0 °F 30.9 °F 92% 29.74 in 5.0 mi WNW 3.5 mph - 0.02 in Snow Light Snow
11:33 AM 33.1 °F - 30.9 °F 92% 29.74 in 5.0 mi Calm Calm - 0.03 in Rain Light Rain
11:45 AM 33.1 °F - 30.9 °F 92% 29.74 in 2.5 mi Calm Calm - 0.05 in Snow Light Snow
11:51 AM 33.1 °F - 30.9 °F 92% 29.76 in 4.0 mi Calm Calm - 0.05 in Snow Light Snow
11:55 AM 33.1 °F 30.0 °F 30.9 °F 92% 29.73 in 3.0 mi WSW 3.5 mph - 0.01 in Snow Light Snow
11:59 AM 33.1 °F - 30.9 °F 92% 29.74 in 1.8 mi Calm Calm - 0.01 in Snow Light Snow
12:11 PM 33.1 °F - 30.9 °F 92% 29.73 in 2.0 mi Calm Calm - 0.02 in Snow Light Snow
12:19 PM 33.1 °F - 30.9 °F 92% 29.72 in 1.5 mi Calm Calm - 0.02 in Snow Light Snow
12:31 PM 34.0 °F - 32.0 °F 92% 29.72 in 2.5 mi Calm Calm - 0.03 in Snow Light Snow
12:39 PM 34.0 °F 31.0 °F 32.0 °F 92% 29.72 in 7.0 mi South 3.5 mph - 0.03 in Rain Light Rain
12:51 PM 34.0 °F 31.0 °F 32.0 °F 92% 29.74 in 10.0 mi SW 3.5 mph - 0.03 in   Overcast
1:51 PM 37.0 °F 32.4 °F 34.0 °F 89% 29.70 in 10.0 mi SSW 5.8 mph - 0.00 in   Overcast
2:51 PM 37.9 °F 33.5 °F 34.0 °F 86% 29.70 in 10.0 mi Variable 5.8 mph - 0.00 in Rain Light Rain
3:04 PM 34.0 °F 27.2 °F 30.9 °F 89% 29.70 in 1.8 mi West 8.1 mph 18.4 mph 0.03 in Rain Heavy Rain
3:09 PM 34.0 °F 27.2 °F 30.9 °F 89% 29.70 in 2.0 mi WNW 8.1 mph - 0.05 in Snow Light Snow
3:16 PM 34.0 °F 29.8 °F 30.9 °F 89% 29.70 in 2.5 mi West 4.6 mph - 0.05 in Snow Light Snow
3:30 PM 34.0 °F - 32.0 °F 92% 29.70 in 7.0 mi Calm Calm - 0.06 in Snow Light Snow
3:38 PM 35.1 °F - 32.0 °F 89% 29.71 in 8.0 mi Calm Calm - 0.06 in Rain Light Rain
4:00 PM 34.0 °F - 32.0 °F 92% 29.71 in 2.5 mi Calm Calm - 0.00 in Snow Light Snow
4:17 PM 34.0 °F - 30.9 °F 89% 29.71 in 2.0 mi Calm Calm - 0.02 in Snow Light Snow
4:36 PM 33.1 °F - 30.9 °F 92% 29.71 in 1.5 mi Calm Calm - 0.03 in Snow Light Snow
4:51 PM 33.1 °F 30.0 °F 30.9 °F 92% 29.74 in 1.5 mi East 3.5 mph - 0.04 in Snow Light Snow
5:01 PM 33.1 °F 30.0 °F 30.9 °F 92% 29.71 in 2.0 mi East 3.5 mph - 0.01 in Snow Light Snow
5:13 PM 34.0 °F 31.0 °F 32.0 °F 92% 29.71 in 5.0 mi East 3.5 mph - 0.01 in Snow Light Snow
5:19 PM 34.0 °F 29.8 °F 32.0 °F 92% 29.71 in 8.0 mi ESE 4.6 mph - 0.01 in   Overcast
5:45 PM 35.1 °F 32.2 °F 32.0 °F 89% 29.72 in 10.0 mi SSE 3.5 mph - 0.01 in   Overcast
5:48 PM 35.6 °F 32.8 °F 32.0 °F 87% 29.72 in 10.0 mi South 3.5 mph - 0.01 in   Overcast
5:51 PM 35.1 °F 32.2 °F 32.0 °F 89% 29.74 in 10.0 mi SSE 3.5 mph - 0.01 in   Overcast
6:29 PM 33.1 °F 26.9 °F 30.9 °F 92% 29.73 in 2.0 mi West 6.9 mph - 0.02 in Snow Light Snow
6:41 PM 34.0 °F 27.2 °F 30.9 °F 89% 29.73 in 3.0 mi WSW 8.1 mph 18.4 mph 0.03 in Snow Light Snow
6:51 PM 33.1 °F 25.5 °F 30.9 °F 92% 29.75 in 3.0 mi West 9.2 mph - 0.03 in Snow Light Snow
6:53 PM 33.1 °F 24.4 °F 30.9 °F 92% 29.73 in 2.5 mi West 11.5 mph 17.3 mph 0.00 in Snow Light Snow
7:08 PM 33.1 °F 26.1 °F 30.0 °F 89% 29.75 in 3.0 mi WNW 8.1 mph - 0.01 in Snow Light Snow
7:15 PM 33.1 °F 24.9 °F 28.9 °F 85% 29.75 in 3.0 mi WNW 10.4 mph - 0.01 in Snow Light Snow
7:19 PM 33.1 °F 23.9 °F 28.9 °F 85% 29.75 in 2.0 mi WNW 12.7 mph 21.9 mph 0.01 in Snow Light Snow
7:27 PM 33.1 °F 23.9 °F 28.0 °F 82% 29.76 in 1.5 mi NW 12.7 mph 21.9 mph 0.01 in Snow Light Snow
7:34 PM 33.1 °F 23.4 °F 28.0 °F 82% 29.76 in 3.0 mi WNW 13.8 mph - 0.01 in Snow Light Snow
7:48 PM 33.8 °F 26.4 °F 26.6 °F 75% 29.77 in 9.0 mi NW 9.2 mph - 0.01 in Snow Light Snow
7:51 PM 33.1 °F 27.7 °F 27.0 °F 78% 29.81 in 9.0 mi North 5.8 mph - 0.01 in   Overcast
8:51 PM 33.1 °F 25.5 °F 27.0 °F 78% 29.83 in 10.0 mi North 9.2 mph - N/A   Overcast
9:51 PM 32.0 °F - 26.1 °F 79% 29.88 in 10.0 mi Calm Calm - N/A   Overcast
10:51 PM 30.0 °F - 26.1 °F 85% 29.90 in 10.0 mi Calm Calm - N/A   Partly Cloudy
11:51 PM 28.0 °F - 26.1 °F 92% 29.92 in 10.0 mi Calm Calm - N/A   Partly Cloudy